AEA394B LEMD-GCLP

Flight info

Callsign AEA394B
Flight time N/A
Altitude 39000
Route VTB DCT INPAN DCT CRISA DCT HIJ DCT SVL DCT CLANA DCT KORNO/N0488F410 UN857 IBALU/N0487F390 UN857 TERTO
Aircraft B789/H-SDE1E2E3FGHIJ2J3J4J5M1RWXY/LB1D1

Departure

Time 2026-05-05 22:51
Airport Adolfo Suárez Madrid–Barajas Airport (LEMD)

Arrival

Time N/A
Airport Gran Canaria Airport (GCLP)
Time Latitude Longitude Altitude Speed Heading
2026-05-05 22:12 40.49539 -3.56858 1978 ft 0 kts 90°
2026-05-05 22:37 40.49539 -3.56886 1979 ft 4 kts 88°
2026-05-05 22:37 40.49538 -3.56922 1978 ft 4 kts 86°
2026-05-05 22:37 40.49536 -3.56957 1978 ft 4 kts 88°
2026-05-05 22:37 40.49537 -3.56987 1980 ft 4 kts 120°
2026-05-05 22:38 40.49555 -3.57003 1983 ft 4 kts 177°
2026-05-05 22:38 40.49576 -3.57003 1984 ft 1 kts 180°
2026-05-05 22:38 40.49580 -3.57003 1984 ft 0 kts 180°
2026-05-05 22:45 40.49572 -3.57003 1986 ft 3 kts 180°
2026-05-05 22:45 40.49544 -3.57003 1985 ft 5 kts 180°
2026-05-05 22:45 40.49497 -3.57003 1984 ft 8 kts 180°
2026-05-05 22:46 40.49433 -3.57003 1983 ft 10 kts 180°
2026-05-05 22:46 40.49359 -3.57002 1981 ft 11 kts 179°
2026-05-05 22:46 40.49304 -3.57038 1987 ft 7 kts 234°
2026-05-05 22:46 40.49294 -3.57084 1985 ft 4 kts 258°
2026-05-05 22:47 40.49288 -3.57114 1987 ft 5 kts 265°
2026-05-05 22:47 40.49286 -3.57160 1986 ft 5 kts 262°
2026-05-05 22:47 40.49269 -3.57205 1989 ft 6 kts 229°
2026-05-05 22:47 40.49234 -3.57223 1990 ft 5 kts 188°
2026-05-05 22:48 40.49205 -3.57239 1990 ft 4 kts 217°
2026-05-05 22:48 40.49190 -3.57269 1991 ft 4 kts 244°
2026-05-05 22:48 40.49188 -3.57279 1991 ft 0 kts 253°
2026-05-05 22:49 40.49187 -3.57280 1991 ft 1 kts 254°
2026-05-05 22:49 40.49185 -3.57308 1992 ft 6 kts 264°
2026-05-05 22:49 40.49185 -3.57385 1991 ft 11 kts 275°
2026-05-05 22:49 40.49239 -3.57459 1992 ft 14 kts 352°
2026-05-05 22:50 40.49334 -3.57451 1988 ft 0 kts
2026-05-05 22:50 40.49367 -3.57451 1989 ft 20 kts 360°
2026-05-05 22:50 40.49741 -3.57455 1992 ft 90 kts 360°
2026-05-05 22:51 40.50600 -3.57454 2000 ft 153 kts
2026-05-05 22:51 40.51746 -3.57393 2674 ft 161 kts
2026-05-05 22:51 40.52849 -3.57491 3687 ft 166 kts 354°
2026-05-05 22:51 40.54031 -3.57523 4540 ft 170 kts 358°
2026-05-05 22:52 40.55196 -3.57559 5476 ft 173 kts 358°
2026-05-05 22:52 40.56373 -3.57135 6371 ft 176 kts 22°
2026-05-05 22:52 40.57506 -3.56464 7169 ft 179 kts 13°
2026-05-05 22:52 40.58717 -3.56073 7955 ft 184 kts
2026-05-05 22:53 40.59975 -3.55613 8749 ft 186 kts
2026-05-05 22:53 40.61225 -3.55379 9684 ft 180 kts 357°
2026-05-05 22:53 40.62494 -3.55532 10254 ft 189 kts 341°
2026-05-05 22:53 40.63697 -3.56243 10931 ft 188 kts 319°
2026-05-05 22:54 40.64649 -3.57399 11643 ft 194 kts 319°
2026-05-05 22:54 40.66052 -3.57830 11934 ft 230 kts
2026-05-05 22:54 40.67537 -3.56785 12322 ft 262 kts 44°
2026-05-05 22:54 40.68362 -3.54562 12687 ft 293 kts 83°
2026-05-05 22:55 40.68129 -3.51862 13528 ft 302 kts 108°
2026-05-05 22:55 40.67444 -3.49185 14479 ft 308 kts 109°
2026-05-05 22:55 40.66862 -3.46473 15338 ft 315 kts 102°
2026-05-05 22:55 40.66533 -3.43590 16225 ft 322 kts 94°
2026-05-05 22:56 40.66528 -3.40609 17126 ft 328 kts 84°
2026-05-05 22:56 40.66794 -3.37599 17976 ft 335 kts 85°
2026-05-05 22:56 40.66733 -3.34516 18742 ft 341 kts 105°
2026-05-05 22:56 40.65720 -3.31714 19447 ft 342 kts 133°
2026-05-05 22:57 40.63896 -3.29679 19778 ft 352 kts 159°
2026-05-05 22:57 40.61524 -3.28833 19961 ft 361 kts 184°
2026-05-05 22:57 40.58962 -3.29041 20096 ft 380 kts 192°
2026-05-05 22:57 40.56276 -3.29562 20338 ft 397 kts 194°
2026-05-05 22:58 40.53540 -3.30109 21211 ft 399 kts 194°
2026-05-05 22:58 40.50762 -3.30556 21908 ft 406 kts 193°
2026-05-05 22:58 40.47947 -3.30986 22646 ft 409 kts 194°
2026-05-05 22:58 40.45108 -3.31466 23343 ft 413 kts 195°
2026-05-05 22:59 40.42241 -3.31971 23926 ft 418 kts 194°
2026-05-05 22:59 40.39359 -3.32455 24623 ft 418 kts 194°
2026-05-05 22:59 40.36457 -3.32931 25194 ft 422 kts 194°
2026-05-05 22:59 40.33535 -3.33420 25778 ft 424 kts 194°
2026-05-05 23:00 40.27635 -3.34415 26889 ft 430 kts 194°
2026-05-05 23:00 40.24662 -3.34952 27428 ft 430 kts 198°
2026-05-05 23:00 40.21716 -3.35691 27927 ft 433 kts 198°
2026-05-05 23:01 40.18752 -3.36423 28416 ft 436 kts 197°
2026-05-05 23:01 40.15762 -3.37158 28914 ft 439 kts 197°
2026-05-05 23:01 40.12753 -3.37899 29401 ft 442 kts 197°
2026-05-05 23:01 40.09726 -3.38646 29904 ft 444 kts 197°
2026-05-05 23:02 40.06677 -3.39397 30330 ft 447 kts 197°
2026-05-05 23:02 40.03650 -3.40141 30722 ft 449 kts 197°
2026-05-05 23:02 40.00568 -3.40898 31113 ft 452 kts 197°
2026-05-05 23:02 39.97431 -3.41668 31469 ft 454 kts 197°
2026-05-05 23:03 39.94320 -3.42431 31884 ft 456 kts 197°
2026-05-05 23:03 39.91193 -3.43197 32237 ft 459 kts 197°
2026-05-05 23:03 39.88042 -3.43969 32596 ft 462 kts 197°
2026-05-05 23:03 39.84920 -3.44732 32933 ft 464 kts 197°
2026-05-05 23:04 39.81809 -3.45747 33250 ft 459 kts 205°
2026-05-05 23:04 39.78886 -3.47345 33602 ft 453 kts 213°
2026-05-05 23:04 39.76219 -3.49455 34100 ft 445 kts 221°
2026-05-05 23:04 39.73860 -3.52002 34478 ft 438 kts 229°
2026-05-05 23:05 39.71712 -3.54802 34830 ft 438 kts 229°
2026-05-05 23:05 39.69562 -3.57609 35150 ft 439 kts 229°
2026-05-05 23:05 39.67422 -3.60429 35501 ft 439 kts 230°
2026-05-05 23:05 39.65278 -3.63257 35831 ft 440 kts 229°
2026-05-05 23:06 39.63123 -3.66085 36165 ft 441 kts 229°
2026-05-05 23:06 39.60966 -3.68906 36513 ft 441 kts 229°
2026-05-05 23:06 39.58806 -3.71735 36850 ft 442 kts 229°
2026-05-05 23:06 39.56644 -3.74568 37178 ft 442 kts 229°
2026-05-05 23:07 39.54475 -3.77406 37505 ft 443 kts 229°
2026-05-05 23:07 39.52306 -3.80240 37837 ft 444 kts 229°
2026-05-05 23:07 39.50132 -3.83078 38161 ft 443 kts 229°
2026-05-05 23:07 39.47955 -3.85918 38466 ft 445 kts 229°
2026-05-05 23:08 39.45776 -3.88758 38747 ft 446 kts 229°
2026-05-05 23:08 39.43588 -3.91607 38972 ft 447 kts 229°
2026-05-05 23:08 39.39169 -3.97353 38988 ft 451 kts 229°
2026-05-05 23:09 39.34799 -4.03021 38991 ft 446 kts 229°
2026-05-05 23:09 39.30428 -4.08686 38990 ft 445 kts 229°
2026-05-05 23:10 39.26053 -4.14339 39004 ft 445 kts 229°
2026-05-05 23:10 39.21677 -4.19989 38996 ft 445 kts 229°
2026-05-05 23:11 39.17295 -4.25632 38996 ft 445 kts 229°
2026-05-05 23:11 39.12906 -4.31274 38999 ft 446 kts 229°
2026-05-05 23:12 39.08515 -4.36909 38995 ft 446 kts 229°
2026-05-05 23:12 39.04123 -4.42535 38995 ft 445 kts 229°
2026-05-05 23:13 38.99740 -4.48137 38983 ft 443 kts 229°
2026-05-05 23:13 38.95362 -4.53724 38991 ft 443 kts 229°
2026-05-05 23:14 38.90987 -4.59295 38993 ft 443 kts 229°
2026-05-05 23:14 38.86606 -4.64862 38989 ft 443 kts 229°
2026-05-05 23:15 38.82222 -4.70424 38988 ft 444 kts 228°
2026-05-05 23:15 38.77828 -4.75987 38984 ft 443 kts 228°
2026-05-05 23:16 38.73468 -4.81497 38980 ft 443 kts 228°
2026-05-05 23:16 38.69078 -4.87035 38979 ft 443 kts 228°
2026-05-05 23:17 38.64691 -4.92560 38985 ft 443 kts 228°
2026-05-05 23:17 38.60297 -4.98083 38983 ft 443 kts 228°
2026-05-05 23:18 38.55894 -5.03607 38991 ft 443 kts 228°
2026-05-05 23:18 38.51400 -5.09000 39007 ft 446 kts 221°
2026-05-05 23:19 38.45970 -5.12987 39008 ft 454 kts 211°
2026-05-05 23:19 38.40288 -5.16520 39007 ft 454 kts 211°
2026-05-05 23:20 38.34606 -5.20046 39016 ft 454 kts 211°
2026-05-05 23:20 38.28928 -5.23566 39018 ft 454 kts 211°
2026-05-05 23:21 38.23251 -5.27077 39014 ft 454 kts 211°
2026-05-05 23:21 38.17571 -5.30585 39016 ft 454 kts 211°
2026-05-05 23:22 38.11886 -5.34089 39017 ft 454 kts 211°
2026-05-05 23:22 38.06191 -5.37594 38989 ft 455 kts 211°
2026-05-05 23:23 38.00499 -5.41090 38999 ft 455 kts 211°
2026-05-05 23:23 37.94807 -5.44581 38994 ft 455 kts 211°
2026-05-05 23:24 37.89102 -5.48073 38994 ft 455 kts 211°
2026-05-05 23:24 37.83414 -5.51550 38997 ft 454 kts 211°
2026-05-05 23:25 37.77718 -5.55025 39001 ft 455 kts 210°
2026-05-05 23:25 37.72003 -5.58506 38993 ft 457 kts 210°
2026-05-05 23:26 37.66278 -5.61986 38992 ft 456 kts 210°
2026-05-05 23:26 37.60602 -5.65431 38998 ft 456 kts 210°
2026-05-05 23:27 37.54890 -5.68893 38985 ft 457 kts 210°
2026-05-05 23:27 37.49144 -5.72368 38994 ft 458 kts 210°
2026-05-05 23:28 37.43462 -5.75912 39001 ft 452 kts 216°
2026-05-05 23:28 37.38549 -5.80720 39001 ft 448 kts 224°
2026-05-05 23:29 37.33788 -5.85780 39002 ft 448 kts 224°
2026-05-05 23:29 37.29027 -5.90848 38978 ft 449 kts 224°
2026-05-05 23:30 37.25049 -5.95066 38982 ft 451 kts 224°
2026-05-05 23:30 37.20261 -6.00141 38986 ft 450 kts 224°
2026-05-05 23:31 37.15480 -6.05199 38983 ft 449 kts 224°
2026-05-05 23:31 37.10712 -6.10235 38983 ft 448 kts 224°
2026-05-05 23:32 37.05954 -6.15251 38985 ft 447 kts 224°
2026-05-05 23:32 37.01168 -6.20289 38985 ft 451 kts 224°
2026-05-05 23:33 36.96361 -6.25338 38991 ft 451 kts 224°
2026-05-05 23:33 36.91552 -6.30384 38993 ft 451 kts 224°
2026-05-05 23:34 36.86742 -6.35420 38992 ft 451 kts 224°
2026-05-05 23:34 36.81928 -6.40453 38983 ft 451 kts 224°
2026-05-05 23:35 36.77107 -6.45484 38994 ft 453 kts 224°
2026-05-05 23:35 36.72268 -6.50524 38991 ft 452 kts 224°
2026-05-05 23:36 36.68975 -6.53950 38989 ft 451 kts 224°
2026-05-05 23:36 36.64116 -6.58999 38991 ft 450 kts 224°
2026-05-05 23:37 36.59301 -6.63992 39085 ft 452 kts 223°
2026-05-05 23:37 36.56888 -6.66491 39385 ft 451 kts 223°
2026-05-05 23:37 36.54476 -6.68987 39626 ft 452 kts 223°
2026-05-05 23:38 36.52059 -6.71487 39881 ft 452 kts 223°
2026-05-05 23:38 36.49641 -6.73985 40150 ft 452 kts 223°
2026-05-05 23:38 36.47220 -6.76483 40421 ft 452 kts 223°
2026-05-05 23:38 36.44800 -6.78977 40701 ft 452 kts 223°
2026-05-05 23:39 36.42383 -6.81468 40932 ft 452 kts 223°
2026-05-05 23:39 36.39952 -6.83972 40998 ft 456 kts 223°
2026-05-05 23:39 36.35055 -6.89004 41011 ft 455 kts 223°
2026-05-05 23:40 36.30192 -6.93995 41012 ft 452 kts 223°
2026-05-05 23:40 36.25389 -6.98917 41009 ft 451 kts 223°
2026-05-05 23:41 36.20552 -7.03865 41022 ft 451 kts 223°
2026-05-05 23:41 36.15705 -7.08815 41018 ft 452 kts 223°
2026-05-05 23:42 36.10854 -7.13761 41025 ft 452 kts 223°
2026-05-05 23:42 36.05996 -7.18705 41039 ft 453 kts 223°
2026-05-05 23:43 36.01131 -7.23649 41038 ft 453 kts 223°
2026-05-05 23:43 35.96264 -7.28587 41036 ft 453 kts 223°
2026-05-05 23:44 35.91394 -7.33519 41038 ft 453 kts 223°
2026-05-05 23:44 35.86524 -7.38444 41039 ft 453 kts 223°
2026-05-05 23:45 35.81647 -7.43363 41039 ft 453 kts 223°
2026-05-05 23:45 35.78204 -7.46792 41042 ft 453 kts 222°